ND5T-1 Weather Reports


time (UTC)temp
C
wind
direction
speed
KPH
gust
KPH
rain 1hr
cm
rain 24hr
cm
rain mn
cm
humidity
%
barometer
mb
20260510011317 27 209 0.0 0.0 0.00 0.03 0.03 86 1009.0
20260510010321 27 11 0.0 0.0 0.00 0.03 0.03 86 1009.1
20260510005330 27 10 0.0 0.0 0.00 0.03 0.03 86 1008.9
20260510004328 27 10 0.0 0.0 0.00 0.03 0.03 86 1008.6
20260510003329 27 10 0.0 0.0 0.00 0.03 0.03 85 1008.5
20260510002351 27 10 0.0 0.0 0.00 0.03 0.03 84 1008.4
20260510001333 27 10 0.0 0.0 0.00 0.03 0.03 84 1008.4
20260510000333 27 10 0.0 0.0 0.00 0.03 0.03 84 1008.3
20260509235329 28 10 0.0 0.0 0.00 0.20 0.03 84 1008.2
20260509234330 28 10 0.0 1.6 0.00 0.20 0.03 82 1008.3
20260509233329 28 271 0.0 0.0 0.00 0.20 0.03 81 1008.3
20260509232329 28 271 0.0 0.0 0.00 0.20 0.03 80 1008.3
20260509231328 28 270 0.0 0.0 0.00 0.20 0.03 78 1008.2
20260509230326 29 270 0.0 0.0 0.00 0.20 0.03 76 1008.2
20260509225317 29 270 0.0 0.0 0.00 0.20 0.03 77 1008.2
20260509224338 29 270 0.0 0.0 0.00 0.20 0.03 74 1008.2
20260509223334 29 270 0.0 0.0 0.00 0.20 0.03 73 1008.1
20260509222317 29 270 0.0 0.0 0.00 0.20 0.03 76 1007.9
20260509221356 29 270 0.0 0.0 0.00 0.20 0.03 74 1008.0
20260509220335 30 270 0.0 1.6 0.00 0.20 0.03 74 1007.9
20260509215327 29 270 0.0 0.0 0.00 0.20 0.03 74 1007.9
20260509214329 30 270 0.0 0.0 0.00 0.20 0.03 73 1008.0
20260509213330 30 159 0.0 0.0 0.00 0.20 0.03 71 1007.9
20260509212329 30 159 0.0 0.0 0.00 0.20 0.03 70 1008.0
20260509211332 31 159 0.0 0.0 0.00 0.20 0.03 69 1008.1
20260509210331 31 159 0.0 1.6 0.00 0.20 0.03 69 1008.2
20260509205321 31 159 0.0 1.6 0.00 0.20 0.03 69 1008.3
20260509204322 31 128 0.0 1.6 0.00 0.20 0.03 72 1008.5
20260509203320 31 128 0.0 1.6 0.00 0.20 0.03 72 1008.4
20260509202321 30 128 0.0 1.6 0.00 0.20 0.03 71 1008.6
20260509201322 30 128 0.0 1.6 0.00 0.20 0.03 73 1008.8
20260509200342 30 181 0.0 1.6 0.00 0.20 0.03 72 1008.9
20260509195329 30 167 0.0 3.2 0.00 0.20 0.03 75 1009.1
20260509194326 29 167 0.0 1.6 0.00 0.20 0.03 80 1009.2
20260509193325 28 150 0.0 3.2 0.00 0.20 0.03 79 1009.4
20260509192341 28 151 0.0 0.0 0.00 0.20 0.03 82 1009.4
20260509191341 28 151 0.0 0.0 0.00 0.20 0.03 84 1009.5
20260509190319 28 150 0.0 1.6 0.00 0.20 0.03 82 1009.6
20260509185329 27 150 0.0 1.6 0.00 0.20 0.03 84 1009.9
20260509184329 27 150 0.0 3.2 0.00 0.20 0.03 86 1009.9
20260509183329 27 150 0.0 0.0 0.00 0.20 0.03 86 1010.0
20260509182329 27 150 0.0 0.0 0.00 0.20 0.03 87 1010.1
20260509181330 27 150 0.0 0.0 0.00 0.20 0.03 86 1010.3
20260509180336 27 150 0.0 1.6 0.00 0.20 0.03 84 1010.5
20260509175326 26 202 0.0 3.2 0.00 0.20 0.03 88 1010.6
20260509174327 26 178 0.0 0.0 0.00 0.20 0.03 90 1010.6
20260509173327 26 178 0.0 1.6 0.00 0.20 0.03 90 1010.7
20260509172325 26 178 0.0 4.8 0.00 0.20 0.03 91 1010.7
20260509171323 25 73 0.0 1.6 0.00 0.20 0.03 92 1010.5
20260509170324 25 73 0.0 1.6 0.00 0.20 0.03 93 1010.5
20260509165332 25 73 0.0 0.0 0.00 0.20 0.03 94 1010.6
20260509164333 25 73 0.0 0.0 0.00 0.20 0.03 95 1010.5
20260509163334 24 73 0.0 0.0 0.00 0.20 0.03 95 1010.6
20260509162332 24 73 0.0 0.0 0.00 0.20 0.03 96 1010.8
20260509161329 24 76 0.0 1.6 0.00 0.20 0.03 96 1010.9
20260509160332 24 76 0.0 0.0 0.00 0.20 0.03 97 1010.9
20260509155320 23 123 0.0 0.0 0.00 0.20 0.03 96 1010.9
20260509154319 23 123 0.0 1.6 0.00 0.20 0.03 97 1010.8
20260509153320 23 122 0.0 0.0 0.00 0.20 0.03 97 1011.1
20260509152322 23 122 0.0 0.0 0.00 0.20 0.03 97 1011.0
20260509151325 23 122 0.0 0.0 0.00 0.20 0.03 97 1011.0
20260509150345 23 135 0.0 0.0 0.00 0.20 0.03 97 1010.9
20260509145330 23 135 0.0 0.0 0.00 0.20 0.03 97 1010.9
20260509144330 23 135 0.0 0.0 0.00 0.20 0.03 97 1010.9
20260509143331 23 135 0.0 0.0 0.00 0.20 0.03 97 1010.7
20260509142327 23 135 0.0 0.0 0.00 0.20 0.03 97 1010.6
20260509141349 23 135 0.0 0.0 0.00 0.20 0.03 97 1010.3
20260509140350 23 135 0.0 0.0 0.00 0.20 0.03 97 1010.1
20260509135339 23 135 0.0 0.0 0.00 0.20 0.03 97 1010.6
20260509134317 23 135 0.0 0.0 0.00 0.20 0.03 97 1010.9
20260509133319 23 136 0.0 0.0 0.00 0.20 0.03 97 1010.8
20260509132340 23 136 0.0 0.0 0.00 0.20 0.03 97 1010.9
20260509131317 22 136 0.0 0.0 0.00 0.20 0.03 97 1010.9
20260509130318 22 136 0.0 0.0 0.00 0.20 0.03 97 1010.9
20260509125325 22 136 0.0 0.0 0.00 0.20 0.03 97 1010.9
20260509124349 22 136 0.0 0.0 0.00 0.20 0.03 97 1010.9
20260509123323 22 136 0.0 0.0 0.00 0.20 0.03 97 1011.0
20260509122324 22 115 0.0 0.0 0.00 0.20 0.03 97 1010.9
20260509121356 22 115 0.0 0.0 0.00 0.20 0.03 97 1010.6
20260509120320 22 115 0.0 0.0 0.00 0.20 0.03 97 1010.4
20260509115334 22 117 0.0 0.0 0.00 0.20 0.03 97 1010.2
20260509114334 22 117 0.0 0.0 0.00 0.20 0.03 97 1010.1
20260509113356 22 117 0.0 0.0 0.00 0.20 0.03 97 1010.0
20260509112318 22 115 0.0 0.0 0.00 0.20 0.03 97 1010.3
20260509111316 22 115 0.0 0.0 0.00 0.20 0.03 97 1010.2
20260509110316 22 115 0.0 0.0 0.00 0.20 0.03 97 1010.2
20260509105328 22 115 0.0 0.0 0.00 0.20 0.03 97 1010.4
20260509104332 22 115 0.0 0.0 0.00 0.20 0.03 96 1010.6
20260509103352 22 115 0.0 0.0 0.00 0.20 0.03 96 1010.5
20260509102335 22 115 0.0 0.0 0.00 0.20 0.03 96 1010.3
20260509101335 22 115 0.0 0.0 0.00 0.20 0.03 96 1009.7
20260509100336 22 115 0.0 0.0 0.00 0.20 0.03 96 1009.7
20260509095324 22 115 0.0 0.0 0.00 0.20 0.03 96 1009.5
20260509094324 22 115 0.0 0.0 0.00 0.20 0.03 96 1009.7
20260509093326 22 115 0.0 0.0 0.00 0.20 0.03 96 1009.8
20260509092323 22 115 0.0 0.0 0.00 0.20 0.03 96 1010.1
20260509091325 22 115 0.0 0.0 0.00 0.20 0.03 96 1010.0
20260509090344 22 115 0.0 0.0 0.00 0.20 0.03 96 1010.1
20260509085317 22 115 0.0 0.0 0.00 0.20 0.03 96 1010.0
20260509084317 22 115 0.0 0.0 0.00 0.20 0.03 96 1010.0
20260509083337 22 115 0.0 0.0 0.03 0.20 0.03 96 1010.0
20260509082318 22 115 0.0 0.0 0.03 0.20 0.03 96 1010.0
20260509081318 22 115 0.0 0.0 0.03 0.20 0.03 96 1010.0
20260509080318 22 115 0.0 0.0 0.03 0.20 0.03 96 1009.9
20260509075331 22 115 0.0 0.0 0.03 0.20 0.03 96 1010.0
20260509074333 22 115 0.0 0.0 0.03 0.20 0.03 96 1010.2
20260509073328 22 115 0.0 0.0 0.00 0.18 0.00 96 1010.3
20260509072326 22 115 0.0 0.0 0.00 0.18 0.00 96 1010.2
20260509071327 22 115 0.0 0.0 0.00 0.18 0.00 96 1010.2
20260509070328 22 115 0.0 0.0 0.00 0.18 0.00 96 1010.4
20260509065320 22 115 0.0 0.0 0.00 0.18 0.00 96 1010.4
20260509064323 22 115 0.0 0.0 0.00 0.18 0.00 96 1010.2
20260509063326 22 115 0.0 0.0 0.00 0.18 0.00 96 1010.4
20260509062330 22 115 0.0 0.0 0.00 0.18 0.00 96 1010.3
20260509061329 22 115 0.0 0.0 0.00 0.18 0.00 96 1010.5
20260509060327 22 115 0.0 0.0 0.00 0.18 0.00 96 1010.6
20260509055318 22 115 0.0 0.0 0.00 0.18 0.00 96 1010.6
20260509054322 22 115 0.0 0.0 0.00 0.18 0.00 96 1010.8
20260509053323 22 115 0.0 0.0 0.00 0.18 0.00 96 1010.7
20260509052318 22 115 0.0 0.0 0.00 0.18 0.00 96 1010.7
20260509051321 22 115 0.0 1.6 0.00 0.18 0.00 96 1010.8
20260509050324 22 115 0.0 0.0 0.00 0.18 0.00 96 1010.8
20260509045324 22 115 0.0 0.0 0.00 0.18 0.18 96 1010.8
20260509044326 22 115 0.0 0.0 0.00 0.18 0.18 96 1010.8
20260509043348 22 115 0.0 0.0 0.00 0.18 0.18 96 1010.7
20260509042330 22 115 0.0 0.0 0.00 0.18 0.18 96 1010.7
20260509041332 21 115 0.0 0.0 0.00 0.18 0.18 96 1010.8
20260509040330 21 115 0.0 0.0 0.00 0.18 0.18 96 1010.7
20260509035322 21 115 0.0 0.0 0.00 0.18 0.18 96 1010.6
20260509034320 21 115 0.0 0.0 0.00 0.18 0.18 96 1010.5
20260509033343 21 115 0.0 0.0 0.00 0.18 0.18 96 1010.4
20260509032323 21 115 0.0 3.2 0.00 0.18 0.18 95 1010.4
20260509031326 21 115 0.0 1.6 0.00 0.18 0.18 95 1010.2
20260509030328 22 115 0.0 3.2 0.00 0.18 0.18 95 1010.3
20260509025324 22 120 0.0 0.0 0.00 0.18 0.18 96 1010.2
20260509024324 22 120 0.0 0.0 0.00 0.18 0.18 96 1010.3
20260509023320 22 120 0.0 0.0 0.00 0.18 0.18 95 1010.0
20260509022319 22 120 0.0 0.0 0.00 0.18 0.18 95 1009.9
20260509021322 22 120 0.0 0.0 0.00 0.18 0.18 95 1010.2
20260509020317 22 120 0.0 0.0 0.00 0.18 0.18 95 1009.9
20260509015325 22 120 0.0 0.0 0.00 0.18 0.18 95 1009.9
20260509014328 22 120 0.0 0.0 0.00 0.18 0.18 95 1010.0
20260509013331 22 120 0.0 0.0 0.00 0.18 0.18 95 1009.9
20260509012350 22 120 0.0 0.0 0.00 0.18 0.18 95 1009.7